Mid Ohio Valley Regional Airport
KPKB : now visible

Airfield :











YOU CAN JOIN US ON...

 
LOGIN :

Register | Disclaimer

   EN    FR    IT 

 









Legend :    VFR   Marginal VFR   IFR   Intensive IFR   Very Intensive IFR
Visi :
Ceiling :
>= 8 km
>= 3000ft
5 to 8 km
1000 to 3000 ft
1500m to 5 km
500 to 1000 ft
800 to 1500m
200 to 500 ft
< 800m
< 200 ft
Symbols :   Thunderstorms  Fog  Heavy snow  Heavy precipitations  Wind > 20 kt







- Airport Elevation : 858 ft
- IATA code : PKB


KPKB - Mid Ohio Valley Regional

CURRENT METAR :
  • 211653Z 28010G21KT 10SM FEW070 29/19 A3028 RMK AO2 LTG DSNT N SLP245 T02890189

EXPIRED METARs :
  • 211553Z 23007KT 10SM CLR 28/19 A3029 RMK AO2 SLP249 T02830189
  • 211453Z 25005KT 10SM CLR 27/19 A3030 RMK AO2 SLP254 T02670189 50006

TAF KPKB
Valid from the 21 at 15:00 until the 22 at 12:00 UTC


211458Z 2115/2212 VRB03KT P6SM FEW050
FM211800 23004KT P6SM SCT060
FM212300 00000KT P6SM SCT050
FM220800 00000KT 5SM BR SCT080
FM221000 00000KT 1 1/2SM BR FEW090
No reported NOTAMs for that airfield.



MET'MAP, your aeronautical weather chart ! - Copyright ORBIFLY December 2007 - Disclaimer

ORBIFLY MET'MAP TEAM :

Programming & Development : Alexandra Zaïnal
Concept & Development : Baudouin d'Aumeries
Co-Development & Prog : Marc-Olivier Méhu
Technical & hardware support : Manuel Goepfert

Contact : metmap@orbifly.com




SOURCES & CREDITS :

   NOAA       Earth
Advisory